Location: *
(1.3500°S, 147.5000°W)
Time: 19:45:00
(UTC+00:00)

DELTA 2 R/B (1) - Pass Details

Date: 07 April 2020
Orbit: 791 x 802 km, 39.6° (Epoch: 27 May)

Event Time Altitude Azimuth Distance (km) Brightness Sun altitude
Rises 04:22:45 0° 308° (NW) 3,275 7.9 -7.8°
Reaches altitude 10° 04:25:14 10° 305° (NW) 2,349 7.1 -8.4°
Maximum altitude 04:30:45 70° 222° (SW) 842 3.9 -9.8°
Drops below altitude 10° 04:36:19 10° 139° (SE) 2,364 5.6 -11.1°
Enters shadow 04:37:11 - 138° (SE) 2,687 5.9 -11.3°
